Location: St. Louis
(38.6270°N, 90.1994°W)
Time: 11:28:22
(UTC-06:00)

A-11 Canister half - Pass Details

Date: 09 December 2021
Orbit: 1524 x 1684 km, 47.3° (Epoch: 25 January)

Event Time Altitude Azimuth Distance (km) Brightness Sun altitude
Rises 01:12:16 0° 256° (WSW) 4,919 - -66.9°
Reaches altitude 10° 01:15:29 10° 260° (W) 3,940 - -66.4°
Maximum altitude 01:25:34 64° 341° (NNW) 1,832 - -64.8°
Exits shadow 01:34:34 14° 60° (ENE) 3,610 11.2 -63.3°
Drops below altitude 10° 01:35:36 10° 62° (ENE) 3,916 11.4 -63.1°
Sets 01:38:47 0° 66° (ENE) 4,888 12.0 -62.5°
